Flight Track Log - Related Links

Times and Time Zones

All times are in EDT time to prevent confusion due to time zone crossing. See the N528VA flight status page for this flight to view local times or setup timezone preferences in your user account.

Time Position Orientation Groundspeed Altitude Reporting Facility
EDT Latitude Longitude Course Direction KTS MPH feet Rate Location/Type
12:54AM 37.4470 -122.4370 122° Southeast 344 396 14,500  Level FlightAware
12:55AM 37.2381 -122.0762 122° Southeast  Level FlightAware Approximate
12:55AM 37.3980 -122.3710 133° Southeast 367 422 16,200  Level FlightAware
12:56AM 37.3510 -122.3050 132° Southeast 376 433 18,000 2,560 Climbing FlightAware
12:56AM 37.3110 -122.2480 131° Southeast 386 444 19,400 2,400 Climbing FlightAware
12:57AM 37.2530 -122.1670 132° Southeast 398 458 21,200 2,400 Climbing FlightAware
12:58AM 37.1970 -122.0870 131° Southeast 405 466 23,000 2,200 Climbing FlightAware
12:59AM 37.1400 -122.0080 132° Southeast 417 480 24,500 1,950 Climbing FlightAware
12:59AM 37.0940 -121.9440 132° Southeast 424 488 25,600 1,875 Climbing FlightAware
01:00AM 37.0350 -121.8610 132° Southeast 435 501 27,000 2,000 Climbing FlightAware
01:01AM 36.9730 -121.7750 132° Southeast 441 507 28,600 2,118 Climbing FlightAware
01:01AM 36.9180 -121.6980 132° Southeast 447 514 30,000 1,906 Climbing FlightAware
01:02AM 36.8560 -121.6120 132° Southeast 457 526 31,300 1,765 Climbing FlightAware
01:03AM 36.8000 -121.5350 132° Southeast 462 532 32,500 1,650 Climbing FlightAware
01:03AM 36.7420 -121.4550 132° Southeast 471 542 33,500 1,553 Climbing FlightAware
01:04AM 36.6730 -121.3610 132° Southeast 481 554 34,700 1,835 Climbing FlightAware
01:05AM 36.6130 -121.2790 132° Southeast 478 550 36,100 2,175 Climbing FlightAware
01:06AM 36.5540 -121.1970 132° Southeast 470 541 37,600 1,906 Climbing FlightAware
01:06AM 36.4890 -121.1090 133° Southeast 464 534 38,800 933 Climbing FlightAware
01:07AM 36.4240 -121.0200 132° Southeast 455 524 39,000 141 Climbing FlightAware
01:08AM 36.3690 -120.9450 132° Southeast 457 526 39,000  Level FlightAware
01:08AM 36.3030 -120.8550 132° Southeast 464 534 39,000  Level FlightAware
01:09AM 36.2460 -120.7770 132° Southeast 469 540 39,000 75 Level FlightAware
01:10AM 36.1860 -120.6980 133° Southeast 471 542 39,100 71 Climbing FlightAware
01:11AM 36.1200 -120.6090 133° Southeast 469 540 39,100 -71 Level FlightAware
01:11AM 36.0610 -120.5290 132° Southeast 469 540 39,000 -75 Descending FlightAware
01:12AM 36.0030 -120.4510 133° Southeast 467 537 39,000  Level FlightAware
01:13AM 35.9370 -120.3640 133° Southeast 466 536 39,000  Level FlightAware
01:13AM 35.8790 -120.2870 133° Southeast 466 536 39,000  Level FlightAware
01:14AM 35.8150 -120.2010 133° Southeast 466 536 39,000  Level FlightAware
01:15AM 35.7530 -120.1200 133° Southeast 466 536 39,000  Level FlightAware
01:15AM 35.6890 -120.0340 132° Southeast 466 536 39,000  Level FlightAware
01:16AM 35.6260 -119.9600 136° Southeast 470 541 39,000  Level FlightAware
01:17AM 35.5620 -119.9060 146° Southeast 472 543 39,000  Level FlightAware
01:17AM 35.4850 -119.8390 145° Southeast 474 545 39,000 -494 Level FlightAware
01:18AM 35.4030 -119.7680 145° Southeast 456 525 38,300 -1,400 Descending FlightAware
01:19AM 35.3270 -119.7040 146° Southeast 456 525 36,900 -1,835 Descending FlightAware
01:20AM 35.2450 -119.6750 164° South 457 526 35,700 -1,500 Descending FlightAware
01:20AM 35.1620 -119.6860 186° South 451 519 34,900 -1,200 Descending FlightAware
01:21AM 35.0990 -119.6790 175° South 436 502 34,300 -1,457 Descending FlightAware
01:21AM 35.0320 -119.6340 151° Southeast 419 482 33,200 -1,800 Descending FlightAware
01:22AM 34.9800 -119.5630 132° Southeast 423 487 31,900 -2,824 Descending FlightAware
01:23AM 34.9140 -119.4890 137° Southeast 442 509 29,200 -3,000 Descending FlightAware
01:24AM 34.8480 -119.4150 137° Southeast 426 490 27,400 -2,471 Descending FlightAware
01:24AM 34.7880 -119.3500 138° Southeast 426 490 25,700 -2,400 Descending FlightAware
01:25AM 34.7290 -119.2860 138° Southeast 414 476 24,200 -2,100 Descending FlightAware
01:26AM 34.6760 -119.2280 138° Southeast 409 471 22,900 -2,100 Descending FlightAware
01:26AM 34.6170 -119.1630 138° Southeast 405 466 21,400 -1,933 Descending FlightAware
01:27AM 34.5490 -119.0890 138° Southeast 385 443 20,000 -1,733 Descending FlightAware
01:28AM 34.4980 -119.0330 138° Southeast 373 429 18,800 -2,080 Descending FlightAware
01:28AM 34.4520 -118.9840 139° Southeast 371 427 17,400 -2,025 Descending FlightAware
01:29AM 34.3950 -118.9220 138° Southeast 371 427 16,100 -1,733 Descending FlightAware
01:30AM 34.3320 -118.8720 147° Southeast 373 429 14,800 -1,765 Descending FlightAware
01:31AM 34.2660 -118.8480 163° South 355 409 13,600 -1,694 Descending FlightAware
01:31AM 34.1950 -118.8220 163° South 355 409 12,400 -1,500 Descending FlightAware
01:32AM 34.1390 -118.8010 163° South 350 403 11,600 -1,059 Descending FlightAware
01:33AM 34.0630 -118.7710 162° South 338 389 10,900 -923 Descending FlightAware
01:33AM 34.0460 -118.7530 139° Southeast 316 364 10,600 -960 Descending FlightAware
01:34AM 34.0340 -118.7020 106° East 285 328 10,100 -646 Descending FlightAware
01:34AM 34.0290 -118.6500 97° East 292 336 9,900 -360 Descending FlightAware
01:34AM 34.0260 -118.6180 96° East 291 335 9,800 -900 Descending FlightAware
01:35AM 34.0200 -118.5550 97° East 283 326 9,000 -1,292 Descending FlightAware
01:35AM 34.0160 -118.5160 97° East 280 322 8,400 -1,636 Descending FlightAware
01:36AM 34.0120 -118.4700 96° East 281 323 7,500 -1,950 Descending FlightAware
01:36AM 34.0100 -118.4540 99° East 283 326 7,100 -2,160 Descending FlightAware
01:37AM 34.0120 -118.3920 88° East 275 316 5,700 -2,240 Descending FlightAware
01:37AM 34.0170 -118.3440 83° East 276 318 4,300 -2,291 Descending FlightAware
01:38AM 34.0220 -118.3120 79° East 266 306 3,600 -1,200 Descending FlightAware
01:39AM 34.0130 -118.2490 100° East 219 252 2,900 -738 Descending FlightAware
01:39AM 33.9980 -118.2440 165° South 199 229 2,800 -750 Descending FlightAware
01:39AM 33.9780 -118.2540 203° Southwest 196 226 2,400 -1,050 Descending FlightAware
01:39AM 33.9710 -118.2670 237° Southwest 189 217 2,100 -900 Descending FlightAware
01:40AM 33.9640 -118.2900 250° West 173 199 1,800 -750 Descending FlightAware
01:40AM 33.9630 -118.3020 264° West 158 182 1,600 -800 Descending FlightAware
01:41AM 33.9600 -118.3270 262° West 136 157 1,200 -764 Descending FlightAware
01:41AM 33.9580 -118.3460 263° West 132 152 900 -360 Descending FlightAware
01:41AM 33.9560 -118.3620 261° West 132 152 900 -200 Level FlightAware
01:42AM 33.9560 -118.3610 90° East 129 148 700 -480 Descending FlightAware
01:42AM 33.9550 -118.3720 264° West 129 148 500 -789 Descending FlightAware
01:43AM 33.9517 -118.4158 264° West 137 158 200 -783 Descending Los Angeles Center

Login

Don't have an account? Register now (free) for customized features, flight alerts, and more!